#timestamp,LO_Frequency,Hit,StdDev 
1563829215.8,286047000.5,N
1563829235.6,286046998.1,Y
1563829255.5,286046998.3,P
1563829275.3,286046998.1,N
1563829295.1,286046998.2,N
1563829315.9,286046998.3,N
1563829335.7,286046999.0,N
1563829355.6,286046999.3,N
1563829375.4,286046996.6,Y
1563829395.2,286046998.9,P
1563829415.1,286046997.3,P
1563829416.0,286046997.3,P
1563829435.8,286046997.5,Y
1563829455.7,286046998.7,P
1563829475.5,286046998.3,P
1563829495.3,286046998.8,P
1563829515.2,286046998.6,Y
1563829535.0,286047000.6,P
1563829535.9,286047000.6,N
1563829555.8,286046998.6,N
1563829575.6,286046998.3,N
1563829595.4,286047000.8,N
1563829615.3,286046998.4,N
1563829635.1,286046998.3,N
1563829655.9,286046999.0,N
1563829675.7,286046998.1,N
1563829695.5,286046999.0,N
1563829715.4,286046998.4,N
1563829735.2,286046998.3,N
1563829755.0,286046998.6,N
1563829756.0,286046998.6,N
1563829775.8,286046998.1,N
1563829795.6,286046998.2,N
1563829815.5,286046999.2,N
1563829835.3,286046998.4,N
1563829855.1,286047001.2,N
1563829875.9,286046998.5,N
1563829895.7,286047000.7,N
1563829915.6,286047000.8,N
1563829935.4,286047000.8,N
1563829955.2,286047000.9,N
1563829975.1,286047001.0,N
1563829976.0,286047001.0,N
1563829995.8,286046998.5,N
1563830015.6,286046997.2,N
1563830035.5,286046999.0,N
1563830055.3,286046995.3,Y
1563830075.2,286046997.8,P
1563830095.9,286046998.0,N
1563830115.7,286046995.0,P
1563830135.6,286046994.9,Y
1563830155.4,286046999.5,P
1563830175.3,286046997.2,N
1563830195.1,286046997.1,N
1563830196.0,286046997.1,N
1563830215.8,286046996.7,Y
1563830235.7,286047000.7,P
1563830255.5,286047000.8,N
1563830275.4,286047002.7,N
1563830295.2,286046998.5,N
1563830315.0,286047000.9,N
1563830315.9,286047000.9,N
1563830335.8,286047000.3,N
1563830355.6,286047000.1,N
1563830375.5,286047002.0,N
1563830395.3,286047001.4,N
1563830415.1,286047002.1,N
1563830435.9,286047000.6,N
1563830455.7,286047002.3,N
1563830475.5,286047001.9,N
1563830495.4,286047000.2,N
1563830515.2,286047002.3,N
1563830535.1,286047002.1,N
1563830536.0,286047002.1,N
1563830555.8,286047002.1,N
1563830575.6,286047002.8,N
1563830595.5,286047002.6,N
1563830615.3,286047001.7,N
1563830635.1,286047001.9,N
1563830655.9,286047001.8,N
1563830675.7,286047001.9,N
1563830695.6,286047002.8,N
1563830715.4,286046999.7,N
1563830735.2,286047001.3,N
1563830755.1,286047003.2,N
1563830756.0,286047003.2,N
1563830775.8,286047003.6,Y
1563830795.7,286047002.2,P
1563830815.5,286047001.9,P
1563830835.3,286047004.4,P
1563830855.2,286046999.7,N
1563830875.0,286047000.0,N
1563830875.9,286047000.0,N
1563830895.7,286047000.2,N
1563830915.6,286047000.2,N
1563830935.4,286047002.8,N
1563830955.3,286046999.7,N
1563830975.1,286046999.7,N
1563830976.0,286046999.7,N
1563830995.8,286047000.5,N
1563831015.7,286047000.5,N
1563831035.5,286047002.4,N
1563831055.4,286047000.0,N
1563831075.2,286047002.6,N
1563831095.0,286047001.8,N
1563831095.9,286047001.8,N
1563831115.8,286047001.6,N
1563831135.6,286047002.6,N
1563831155.4,286047002.6,N
1563831175.3,286046999.9,N
1563831195.1,286047001.7,N
1563831215.9,286047004.0,Y
1563831235.7,286046999.7,P
1563831255.5,286047000.1,N
1563831275.4,286047001.1,N
1563831295.2,286047000.5,N
1563831315.1,286046999.9,N
1563831316.0,286046999.9,N
1563831335.8,286047002.1,Y
1563831355.6,286046999.8,P
1563831375.5,286047000.5,N
1563831395.3,286047000.4,N
1563831415.1,286047000.6,N
1563831435.9,286047000.1,N
1563831455.7,286046999.9,N
1563831475.6,286047001.9,Y
1563831495.4,286047004.2,P
1563831515.2,286047004.2,N
1563831535.1,286047002.0,N
1563831536.0,286047002.0,N
1563831555.8,286047004.0,N
1563831575.7,286047001.5,N
1563831595.5,286047004.3,N
1563831615.3,286047001.6,N
1563831635.2,286047002.4,N
1563831655.0,286047002.0,N
1563831655.9,286047002.0,N
1563831675.8,286047004.2,Y
1563831695.6,286046999.9,P
1563831745.5,286047001.1,E
1563831755.4,286047001.1,N
1563831775.2,286046998.4,P
1563831795.1,286046999.2,N
1563831796.0,286046999.2,N
1563831815.8,286046999.5,N
1563831835.6,286046998.6,N
1563831855.5,286047001.1,N
1563831875.3,286046996.5,Y
1563831895.2,286046998.9,P
1563831915.9,286046998.4,P
1563831935.7,286046998.5,P
1563831955.6,286047000.5,N
1563831975.4,286046998.7,N
1563831995.2,286046998.4,N
1563832015.1,286046998.6,N
1563832016.0,286046998.6,N
1563832035.8,286046998.5,N
1563832055.7,286047000.7,N
1563832075.5,286047002.3,N
1563832095.3,286046998.7,N
1563832115.2,286046999.2,N
1563832135.0,286046998.6,N
1563832135.9,286046998.6,N
1563832155.8,286046998.2,N
1563832175.6,286047000.9,N
1563832195.4,286047001.1,N
1563832215.3,286047000.9,N
1563832235.1,286046999.9,N
1563832255.9,286047000.3,N
1563832275.7,286047000.8,N
1563832295.5,286046999.2,N
1563832315.4,286046999.2,N
1563832335.2,286046999.3,N
1563832355.0,286046998.8,N
1563832356.0,286046998.8,N
1563832375.8,286046998.1,N
1563832395.6,286046998.6,N
1563832415.5,286047002.4,N
1563832435.3,286047002.8,N
1563832455.1,286047001.0,N
1563832475.9,286047000.4,N
1563832495.7,286046999.9,N
1563832515.6,286046999.9,N
1563832535.4,286047001.7,N
1563832555.2,286047001.4,N
1563832575.1,286047004.2,Y
1563832576.0,286047004.2,P
1563832595.8,286047004.2,N
1563832615.7,286047004.1,N
1563832635.5,286047003.7,N
1563832655.3,286047004.8,N
1563832675.2,286047007.5,Y
1563832695.0,286047002.2,P
1563832695.9,286047002.2,P
1563832715.7,286047002.0,P
1563832735.6,286047002.5,Y
1563832755.4,286046999.4,P
1563832775.3,286046999.6,N
1563832795.1,286046999.5,N
1563832796.0,286046999.5,N
